www.pogodaiklimat.ru

Погода и климат >> Архив погоды >> Норвегия >> Myken


ПОГОДА в Myken

  • Прогноз погоды в Myken
  • Монитор погоды в Myken
  • Климат города

АРХИВ ПОГОДЫ в Myken

Время (UTC), дата Ветер
(напр.,м/с)
 
Видим.   Явления Облачность Т
(С)
Тd
(С)
f
(%)
Тe
(С)
Тes
(С)
Комфортность P
(гПа)
Po
(гПа)
Тmin
(С)
Tmax
(С)
R
(мм)
R24
(мм)
S
(см)
14 8.12 В 12-14
{16}
н/о н/о +5.5 +0.5 70 -1 -1 972.9 970.9
13 8.12 В 14-16
{17}
н/о н/о +5.5 -0.3 66 -1 -1 972.5 970.5
15 8.12 В 13-15
{16}
20 км {дождь} 10/10 300 м
[Sc]
+5.2 +0.2 70 -2 -2 973.2 971.2
16 8.12 В 12-14
{15}
н/о н/о +5.5 +0.5 70 -1 -1 973.6 971.6
17 8.12 В 11-13
{14}
н/о н/о +5.1 +0.5 72 -1 -1 974.2 972.2
18 8.12 В 8-13
{17}
10 км слабый дождь 10/3 300 м
[Frnb As op]
+4.8 +0.4 73 -1 -1 974.8 972.8 +3.1 +5.8
20 8.12 В 13-14
{15}
н/о н/о +4.9 -0.1 70 -2 -2 975.4 973.4
19 8.12 В 11-13
{14}
н/о н/о +5.1 +0.1 70 -1 -1 975.0 973.0
21 8.12 В 11-13
{14}
15 км {ливн. осадки, дождь} 9/3 300 м
[Cb calv Ac cuf]
+4.6 0.0 72 -2 -2 975.6 973.6
22 8.12 В 10-11
{13}
н/о н/о +4.8 -0.4 69 -1 -1 976.1 974.1
23 8.12 В 10-12
{14}
н/о н/о +4.8 -0.6 68 -1 -1 976.4 974.4
00 9.12 В 12-13
{15}
н/о н/о +5.0 -0.8 66 -2 -2 976.6 974.6
02 9.12 В 11-12
{12}
н/о н/о +4.4 -1.0 68 -2 -2 977.4 975.4
01 9.12 В 10-11
{13}
н/о н/о +4.6 -1.0 67 -2 -2 977.1 975.1
03 9.12 В 10-12
{12}
н/о н/о +4.6 -1.2 66 -2 -2 977.7 975.7
04 9.12 В 11-13
{13}
н/о н/о +4.4 -0.8 69 -2 -2 978.0 976.0
05 9.12 В 12-13
{13}
н/о н/о +4.3 -0.3 72 -3 -3 978.3 976.3
06 9.12 В 10 20 км 6/0
[Ac As]
+4.6 -0.4 70 -2 -2 978.6 976.6 +4.2 +5.3
08 9.12 ЮВ 10-11
{11}
н/о н/о +4.8 -2.3 60 -1 -1 979.3 977.3
07 9.12 ЮВ 9-11
{12}
н/о н/о +4.8 -1.4 64 -1 -1 978.8 976.8
09 9.12 ЮВ 10-12
{12}
30 км 9/0
[Ac As]
+4.8 -1.2 65 -1 -1 979.8 977.8
10 9.12 ЮВ 9-11
{11}
н/о н/о +4.5 -1.3 66 -2 -2 980.0 978.0
11 9.12 ЮВ 9-10
{10}
н/о н/о +4.6 -1.4 65 -1 -1 980.1 978.1
12 9.12 ЮВ 10-12
{12}
>70 км 5/1 300 м
[Cb cap Ac As Ci fib]
+4.7 -2.1 61 -1 -1 980.5 978.5
14 9.12 В 8-10
{10}
н/о н/о +4.5 -2.1 62 -1 -1 980.6 978.6
13 9.12 ЮВ 9-10
{11}
н/о н/о +4.6 -2.2 61 -1 -1 980.5 978.5
15 9.12 В 9-10
{11}
>70 км 3/0
[Ac As]
+4.5 -1.7 64 -1 -1 980.9 978.9
16 9.12 В 10-12
{12}
н/о н/о +4.5 -1.1 67 -2 -2 981.0 979.0
17 9.12 В 9-11
{12}
н/о н/о +4.3 -1.1 68 -2 -2 981.1 979.1
18 9.12 В 8-9
{12}
>70 км 3/0
[Ac As]
+4.5 -1.5 65 -1 -1 981.1 979.1 +4.2 +5.0
20 9.12 ЮВ 10-11
{12}
н/о н/о +4.3 -2.5 61 -2 -2 981.8 979.8
19 9.12 ЮВ 9-11
{11}
н/о н/о +4.6 -1.4 65 -1 -1 981.4 979.4
21 9.12 ЮВ 9-11
{11}
>70 км 4/0
[Ac As]
+4.5 -1.9 63 -1 -1 982.2 980.2
22 9.12 ЮВ 9-10
{12}
н/о н/о +4.4 -2.4 61 -2 -2 982.4 980.4
23 9.12 ЮВ 8-10
{11}
н/о н/о +3.8 -1.7 67 -2 -2 982.5 980.5
00 10.12 ЮВ 8-9
{12}
н/о н/о +4.0 -2.2 64 -2 -2 982.7 980.7
02 10.12 ЮВ 9-11
{12}
н/о н/о +4.3 -2.1 63 -2 -2 983.2 981.2
01 10.12 ЮВ 9-11
{11}
н/о н/о +4.0 -1.7 66 -2 -2 983.0 981.0
03 10.12 ЮВ 11-14
{14}
н/о н/о +4.2 -2.0 64 -2 -2 983.4 981.4
04 10.12 ЮВ 10-12
{12}
н/о н/о +4.3 -1.9 64 -2 -2 983.4 981.4
05 10.12 ЮВ 11-13
{13}
н/о н/о +4.1 -2.9 60 -3 -3 983.4 981.4
06 10.12 ЮВ 11 >70 км 4/0
[Ac As]
+4.2 -2.6 61 -2 -2 983.8 981.8 +3.6 +4.7
08 10.12 ЮВ 12-14
{14}
н/о н/о +4.0 -2.6 62 -3 -3 984.8 982.8
07 10.12 ЮВ 10-12
{13}
н/о н/о +4.0 -3.0 60 -2 -2 984.4 982.4
09 10.12 ЮВ 13-15
{15}
>70 км 8/0
[Ac As]
+3.9 -2.9 61 -3 -3 985.3 983.3
10 10.12 ЮВ 12-14
{15}
н/о н/о +3.7 -2.9 62 -3 -3 985.5 983.5
11 10.12 ЮВ 11-13
{15}
н/о н/о +3.7 -3.1 61 -3 -3 986.1 984.0
12 10.12 ЮВ 13-16
{16}
50 км 9/0
[Ac As]
+3.5 -3.3 61 -4 -4 986.0 983.9
14 10.12 ЮВ 9-11
{13}
н/о н/о +3.7 -3.3 60 -2 -2 986.5 984.4
13 10.12 ЮВ 12-14
{15}
н/о н/о +3.6 -3.4 60 -3 -3 986.4 984.3
15 10.12 ЮВ 10-12
{12}
50 км 9/0
[Ac As]
+4.2 -2.6 61 -2 -2 986.6 984.6
16 10.12 ЮВ 9-11
{12}
н/о н/о +4.4 -3.1 58 -2 -2 986.9 984.9
17 10.12 В 10-12
{12}
н/о н/о +4.3 -1.9 64 -2 -2 987.0 985.0
18 10.12 В 13-15
{15}
60 км 8/0
[Ac As]
+4.4 -1.4 66 -3 -3 987.3 985.3 +3.3 +4.6
20 10.12 В 10-13
{13}
н/о н/о +4.7 -1.5 64 -2 -2 987.6 985.6
19 10.12 В 11-13
{14}
н/о н/о +4.6 -1.2 66 -2 -2 987.6 985.6
21 10.12 В 11-13
{14}
>70 км 4/0
[Ac As]
+4.5 -1.5 65 -2 -2 987.8 985.8
22 10.12 В 10-12
{13}
н/о н/о +4.3 -1.9 64 -2 -2 988.2 986.1
23 10.12 В 9-11
{12}
н/о н/о +4.3 -1.3 67 -2 -2 988.5 986.4
00 11.12 ЮВ 9-10
{14}
н/о н/о +4.2 -3.3 58 -2 -2 988.9 986.8
02 11.12 ЮВ 9-10
{11}
н/о н/о +4.0 -3.0 60 -2 -2 989.8 987.7
01 11.12 ЮВ 9-11
{11}
н/о н/о +4.3 -2.3 62 -2 -2 989.3 987.2
03 11.12 ЮВ 9-11
{11}
н/о н/о +3.8 -3.0 61 -2 -2 990.6 988.5
04 11.12 ЮВ 6-8
{11}
н/о н/о +3.4 -3.8 59 -2 -2 990.9 988.8
05 11.12 Ю 7-9
{9}
н/о н/о +3.3 -4.6 56 -2 -2 991.3 989.2
06 11.12 ЮВ 7-9
{11}
н/о н/о +3.2 -4.5 57 -2 -2 992.0 989.9 +3.1 +4.8
08 11.12 ЮВ 8-10
{10}
н/о н/о +3.1 -4.6 57 -3 -3 993.4 991.3
07 11.12 Ю 8-10
{10}
н/о н/о +3.3 -4.6 56 -3 -3 992.4 990.3
09 11.12 ЮВ 8-10
{11}
н/о н/о +2.9 -5.2 55 -3 -3 994.0 991.9
10 11.12 Ю 8-10
{11}
н/о н/о +2.8 -4.6 58 -3 -3 994.2 992.1
11 11.12 Ю 9-11
{12}
н/о н/о +2.7 -4.5 59 -4 -4 994.8 992.7
12 11.12 ЮВ 9-10
{12}
н/о н/о +2.3 -4.8 59 -4 -4 995.2 993.1
14 11.12 ЮВ 8-11
{12}
н/о н/о +2.1 -6.0 55 -4 -4 995.9 993.8
13 11.12 ЮВ 9-11
{11}
н/о н/о +2.2 -6.6 52 -4 -4 995.4 993.3
15 11.12 Ю 8-11
{11}
н/о н/о +1.9 -6.4 54 -4 -4 996.2 994.1
16 11.12 ЮВ 9-11
{11}
н/о н/о +1.9 -5.7 57 -5 -5 996.7 994.6
17 11.12 ЮВ 9-11
{12}
н/о н/о +1.8 -5.3 59 -5 -5 997.0 994.9
18 11.12 ЮВ 8-11
{12}
н/о н/о +1.6 -6.2 56 -5 -5 997.3 995.2 +1.6 +3.4
20 11.12 ЮВ 8-10
{11}
н/о н/о +1.4 -6.6 55 -5 -5 997.9 995.8
19 11.12 ЮВ 8-10
{11}
н/о н/о +1.5 -6.5 55 -5 -5 997.6 995.5
21 11.12 Ю 8-10
{12}
н/о н/о +1.3 -7.2 53 -5 -5 997.9 995.8
22 11.12 Ю 9-11
{11}
н/о н/о +1.2 -7.5 52 -6 -6 997.8 995.7
23 11.12 Ю 9-11
{12}
н/о н/о +1.3 -7.2 53 -6 -6 997.7 995.6
00 12.12 Ю 8-10
{12}
н/о н/о +1.3 -6.9 54 -5 -5 997.6 995.5
02 12.12 Ю 7-9
{10}
н/о н/о +1.0 -6.7 56 -5 -5 997.5 995.4
01 12.12 Ю 7-9
{11}
н/о н/о +1.0 -8.0 51 -5 -5 997.5 995.4
03 12.12 ЮВ 7-9
{10}
н/о н/о +0.8 -6.7 57 -5 -5 997.2 995.1
04 12.12 ЮВ 7-9
{9}
н/о н/о +0.8 -7.2 55 -5 -5 997.1 995.0
05 12.12 ЮВ 7-8
{9}
н/о н/о +0.9 -7.1 55 -5 -5 996.8 994.7
06 12.12 ЮВ 6-8
{11}
н/о н/о +0.7 -7.3 55 -5 -5 996.5 994.4 +0.7 +1.7
08 12.12 ЮВ 5-7
{7}
н/о н/о +0.9 -6.4 58 -4 -4 995.8 993.7
07 12.12 Ю 6-8
{8}
н/о н/о +0.7 -7.0 56 -5 -5 996.2 994.1
09 12.12 ЮВ 5-7
{7}
н/о н/о +0.9 -6.6 57 -4 -4 995.4 993.3
10 12.12 Ю 5-7
{7}
н/о н/о +0.8 -6.5 58 -5 -5 995.1 993.0
11 12.12 Ю 4-6
{7}
н/о н/о +1.0 -6.3 58 -4 -4 994.7 992.6
12 12.12 ЮВ 6-8
{8}
>70 км 3/1 300 м
[Cu hum Ac As]
+1.2 -5.7 60 -5 -5 994.2 992.1
14 12.12 Ю 4-6
{7}
н/о н/о +0.5 -6.3 60 -4 -4 993.3 991.2
13 12.12 Ю 5-7
{10}
н/о н/о +0.6 -6.7 58 -5 -5 993.7 991.6
15 12.12 ЮВ 4-5
{6}
>70 км 5/0
[Ac As]
+0.4 -6.0 62 -5 -5 993.0 990.9
16 12.12 ЮВ 4-5
{6}
н/о н/о +0.6 -6.2 60 -4 -4 992.6 990.5
17 12.12 ЮВ 4-7
{7}
н/о н/о +0.6 -6.0 61 -4 -4 992.2 990.1
18 12.12 ЮВ 3-5
{10}
>70 км 4/0
[Ac As]
+0.1 -7.1 58 -4 -4 991.5 989.4 +0.1 +1.3
20 12.12 ЮВ 3-4
{5}
н/о н/о 0.0 -6.5 62 -4 -4 991.1 989.0
19 12.12 ЮВ 3-4
{5}
н/о н/о 0.0 -6.5 62 -4 -4 991.1 989.0
21 12.12 ЮВ 4-6
{7}
>70 км 3/0
[Ac As]
+0.2 -6.6 60 -5 -5 989.9 987.8
22 12.12 ЮВ 5-7
{7}
н/о н/о +0.3 -6.5 60 -5 -5 989.2 987.1
23 12.12 ЮВ 5-6
{7}
н/о н/о +0.3 -7.2 57 -5 -5 988.5 986.4
00 13.12 В 4
{7}
>70 км 3/0 2000 м
[Ac As]
+0.3 -6.5 60 -5 -5 987.9 985.8
02 13.12 В 1 н/о н/о -0.1 -5.4 67 -2 -2 986.7 984.6
01 13.12 ЮВ 2 н/о н/о -0.1 -5.8 65 -3 -3 987.2 985.1
03 13.12 ЮВ 2 н/о н/о 0.0 -5.0 69 -3 -3 986.4 984.3
04 13.12 ЮВ 2 н/о н/о -0.1 -4.9 70 -3 -3 985.9 983.8
05 13.12 ЮВ 2-4
{6}
н/о н/о +0.1 -5.3 67 -3 -3 985.5 983.4
06 13.12 ЮВ 3 >70 км 3/0
[Ac As]
+0.4 -6.4 60 -4 -4 985.2 983.1
08 13.12 В 2-3
{5}
н/о н/о +0.3 -5.9 63 -3 -3 984.9 982.8
07 13.12 В 3-4
{5}
н/о н/о +0.5 -6.5 59 -4 -4 985.0 982.9
09 13.12 В 2-4
{4}
>70 км 4/0
[Ac As]
+0.8 -5.2 64 -2 -2 984.8 982.7
10 13.12 ЮВ 2-3
{4}
н/о н/о +0.2 -4.8 69 -3 -3 984.6 982.5
11 13.12 Ю 3-4
{4}
н/о н/о +0.2 -4.4 71 -4 -4 984.4 982.3
12 13.12 Ю 3-4
{5}
>70 км 4/0
[Ac As Ci fib]
+0.1 -4.0 74 -4 -4 984.2 982.1
14 13.12 ЮЗ 3-4
{5}
н/о н/о +0.9 -3.5 72 -3 -3 983.9 981.8
13 13.12 Ю 3-5
{5}
н/о н/о +0.7 -3.6 73 -4 -4 984.0 981.9
15 13.12 Ю 4-5
{6}
30 км в посл. час крупа {ливн. осадки} 8/1 300 м
[Cb cap Ac cuf]
+1.0 -2.9 75 -4 -4 983.9 981.8
16 13.12 Ю 5-7
{8}
н/о н/о +0.8 -2.9 76 -5 -5 983.7 981.6
17 13.12 Ю 5-7
{8}
н/о н/о +0.8 -3.1 75 -5 -5 983.6 981.5
18 13.12 Ю 6-8
{9}
>70 км {ливн. осадки} 3/0
[Ac As]
+1.0 -3.1 74 -5 -5 983.5 981.4 0.0 +1.2
20 13.12 Ю 6-9
{9}
н/о н/о +1.2 -2.9 74 -5 -5 983.6 981.5
19 13.12 Ю 5-7
{9}
н/о н/о +1.1 -3.0 74 -4 -4 983.6 981.5
21 13.12 Ю 6-9
{9}
>70 км 3/0
[Ac As]
+1.6 -2.3 75 -4 -4 983.5 981.4
22 13.12 Ю 7-9
{9}
н/о н/о +1.7 -2.6 73 -5 -5 983.6 981.5
23 13.12 Ю 6-8
{9}
н/о н/о +1.6 -2.9 72 -4 -4 983.8 981.7
00 14.12 Ю 6-9
{9}
>70 км 4/0
[Ac As]
+1.7 -2.6 73 -4 -4 983.8 981.7
02 14.12 Ю 6-8
{9}
н/о н/о +1.8 -2.5 73 -4 -4 984.1 982.0
01 14.12 Ю 6-8
{9}
н/о н/о +1.8 -2.7 72 -4 -4 984.1 982.0
03 14.12 Ю 7-9
{9}
н/о н/о +1.7 -2.8 72 -5 -5 984.2 982.1
04 14.12 Ю 6-7
{8}
н/о н/о +1.8 -2.9 71 -4 -4 984.2 982.1
05 14.12 Ю 5-6
{7}
н/о н/о +1.7 -2.8 72 -4 -4 984.5 982.4
06 14.12 Ю 5-6
{9}
н/о н/о +1.7 -3.0 71 -4 -4 984.8 982.7 +1.0 +2.0
08 14.12 Ю 4-5
{5}
н/о н/о +1.5 -3.3 70 -3 -3 985.6 983.5
07 14.12 Ю 5-6
{7}
н/о н/о +1.6 -2.9 72 -4 -4 985.0 982.9
09 14.12 Ю 3-4
{5}
>70 км 3/1 300 м
[Cb cap Ac As]
+1.4 -3.3 71 -3 -3 986.0 983.9
10 14.12 Ю 2-3
{4}
н/о н/о +1.8 -3.1 70 -1 -1 986.4 984.3
11 14.12 ЮВ 2-3
{4}
н/о н/о +1.7 -3.2 70 -1 -1 986.4 984.3
12 14.12 Ю 1-1
{7}
>70 км 3/1 300 м
[Cb cap Ac As]
+1.6 -3.2 70 0 0 986.5 984.4
14 14.12 ЮВ 2-2
{3}
н/о н/о +1.7 -2.8 72 -1 -1 986.9 984.8
13 14.12 Ю 2-2
{2}
н/о н/о +1.8 -2.9 71 -1 -1 986.7 984.6
15 14.12 ЮЗ 1-1
{2}
>70 км 3/1 300 м
[Cb cap Ac As]
+1.8 -2.9 71 0 0 987.1 985.0
16 14.12 ЮВ 2-3
{3}
н/о н/о +1.7 -2.6 73 -1 -1 987.2 985.1
17 14.12 ЮВ 3-4
{4}
н/о н/о +1.3 -3.3 71 -3 -3 987.5 985.4
18 14.12 Ю 3-4
{4}
>70 км 6/0
[Ac As]
+1.9 -3.7 66 -2 -2 987.8 985.7 +1.1 +2.0
20 14.12 Ю 3-4
{5}
н/о н/о +1.5 -4.5 64 -2 -2 988.2 986.1
19 14.12 Ю 4-5
{6}
н/о н/о +1.6 -4.9 62 -3 -3 987.7 985.6
21 14.12 Ю 2-3
{4}
>70 км 3/0
[Ac As]
+1.7 -3.9 66 -1 -1 988.3 986.2
22 14.12 ЮЗ 2-3
{4}
н/о н/о +2.2 -3.3 67 -1 -1 988.5 986.4
23 14.12 ЮЗ 4-5
{6}
н/о н/о +1.9 -3.3 68 -3 -3 988.7 986.6
00 15.12 Ю 4-6
{7}
>70 км 3/0
[Ac As]
+1.6 -3.1 71 -3 -3 988.9 986.8
02 15.12 Ю 4-6
{6}
н/о н/о +1.4 -2.9 73 -3 -3 989.4 987.3
01 15.12 Ю 4-6
{7}
н/о н/о +1.6 -3.4 69 -3 -3 989.2 987.1
03 15.12 Ю 5-8
{8}
н/о н/о +1.5 -2.4 75 -4 -4 989.5 987.4
04 15.12 Ю 5-7
{7}
н/о н/о +1.3 -2.3 77 -4 -4 989.9 987.8
05 15.12 Ю 6-8
{8}
н/о н/о +1.3 -2.1 78 -5 -5 990.1 988.0
06 15.12 Ю 6-8
{8}
н/о н/о +1.1 -3.0 74 -5 -5 990.4 988.3 +1.0 +2.3
08 15.12 Ю 6-7
{8}
н/о н/о +1.1 -3.2 73 -5 -5 991.4 989.3
07 15.12 Ю 6-8
{8}
н/о н/о +1.2 -2.4 77 -5 -5 990.9 988.8
09 15.12 Ю 5-7
{8}
>70 км 6/1 300 м
[Cb cap Ac As]
+1.1 -3.0 74 -4 -4 991.8 989.7
10 15.12 Ю 6-8
{8}
н/о н/о +1.1 -2.6 76 -5 -5 991.8 989.7
11 15.12 Ю 7-9
{9}
н/о н/о +1.2 -2.9 74 -5 -5 992.2 990.1
12 15.12 Ю 7-9
{9}
>70 км {ливн. осадки} 8/1 300 м
[Cb cap Ac cuf]
+1.3 -2.8 74 -5 -5 992.4 990.3
13 15.12 Ю 7-9
{9}
н/о н/о +1.3 -3.0 73 -5 -5 992.5 990.4

 

Местоположение метеостанции Myken (Норвегия): широта 66.77 долгота 12.48 высота над уровнем моря 17 м.

В архиве по умолчанию представлена погода в Myken за последнюю неделю. Архивные данные за месяц целиком и за предыдущие месяцы, начиная с января 2011 года, Вы можете получить, выбрав интересующий диапазон дат из раскрывающегося списка и нажав кнопку "Ввод!".

Внимание! Время в таблицах - всемирное. Для получения местного времени необходимо прибавить поправку, которая в Myken равна 1 ч.

Смотрите также архив погоды в соседних городах и на ближайших метеорологических станциях:

Погода в Solvaer III (Норвегия) (45 км)
Погода в Reipa (Норвегия) (53 км)
Погода в Rost Flyplass (Норвегия) (85 км)
Погода в Skamdal (Норвегия) (86 км)
Погода в Seljelia (Норвегия) (86 км)
Погода в Sandnessjoen Lufthavn (Норвегия) (90 км)
Погода в Mo i Rana Lufthavn (Норвегия) (93 км)
Погода в Helligvaer II (Норвегия) (93 км)
Погода в Vaeroy Heliport (Норвегия) (98 км)
Погода в Bodo VI (Норвегия) (99 км)

Пояснения к столбцам:

Ветер - указаны скорость ветра в м/с - средняя за 10 мин, порывы в срок и между сроками (в фигурных скобках) и направление, откуда дует ветер: С - северный, СВ - северо-восточный, В - восточный, ЮВ - юго-восточный, Ю - южный, ЮЗ - юго-западный, З - западный, СЗ - северо-западный.
Видимость - горизонтальная дальность видимости в метрах или километрах. При видимости от 1 до 10 км при отсутствии осадков обычно наблюдается дымка, при ухудшении видимости до 1 км и менее - туман. В сухую погоду видимость может ухудшаться дымом, пылью или мглою.
Явления - указаны атмосферные явления, наблюдавшиеся в срок или в последний час перед сроком; фигурными скобками обозначены явления, наблюдавшиеся между сроками (за 1-3 часа до срока); квадратными скобками обозначены град или гололедные отложения с указанием их диаметра в мм.
Облачность - указаны через наклонную черту общая и нижняя облачность в баллах и высота нижней границы облаков в метрах; квадратными скобками обозначены формы облаков: Ci - перистые, Cs - перисто-слоистые, Cc - перисто-кучевые, Ac - высококучевые, As - высокослоистые, Sc - слоисто-кучевые, Ns - слоисто-дождевые, Cu - кучевые, Cb - кучево-дождевые. Подробнее классификацию облаков см. в Атласе облаков (PDF).
T - Температура воздуха - температура, измеренная на высоте 2 м над землей.
Td - Температура точки росы - температура, при понижении до которой содержащийся в воздухе водяной пар достигнет насыщения.
f - Относительная влажность воздуха - влажноcть воздуха, измеренная на высоте 2 м над землей.
Te - Эффективная температура - температура, которую ощущает одетый по сезону человек в тени. Характеристика душности погоды. При расчете учитывается влияние влажности воздуха и скорости ветра на теплоощущения человека.
Tes - Эффективная температура на солнце - температура, которую ощущает человек, с поправкой на солнечный нагрев. Характеристика знойности погоды. Зависит от высоты солнца над горизонтом, облачности и скорости ветра. Ночью, в пасмурную погоду, а также при ветре 12 м/с и более поправка равна нулю.
P - Атмосферное давление - приведенное к уровню моря атмосферное давление.
Po - Атмосферное давление - измеренное на уровне метеостанции атмосферное давление.
Tmin - Минимальная температура - минимум температуры воздуха на высоте 2 м над землей.
Tmax - Максимальная температура - максимум температуры воздуха на высоте 2 м над землей.
R - Количество осадков - Количество выпавших осадков за период времени, мм. При наведении курсора мыши на число - период времени, за который выпало указанное количество осадков.
R24 - Количество осадков - Количество выпавших осадков за 24 часа, мм.
S - Снежный покров - Высота снежного покрова, см. При наведении курсора мыши на число - состояние снежного покрова и степень покрытия местности в баллах.